Probability
0 0 0 0 0 0 0 0 0 0 0 0 0 0 0 1 2 1 0 0 1 3 3 2 1 1 0 2 6 9 11 12 11 9 8 6 2 0 0 0 0 0 0 0
0 0 0 0 0 0 0 0 0 0 0 0 0 0 0 1 2 1 0 1 2 3 3 1 1 2 1 2 6 9 10 12 13 12 10 7 4 2 0 0 0 0 0 0
0 0 0 0 0 0 0 0 0 0 0 0 0 1 2 1 1 1 0 1 2 3 3 2 2 3 2 2 4 7 10 12 14 14 13 11 8 6 2 0 0 0 1 1
0 0 0 0 0 0 0 0 0 0 0 0 0 1 3 2 0 0 0 1 3 4 4 3 4 4 3 3 3 7 10 13 14 15 15 13 12 9 4 1 1 1 1 2
0 0 0 0 0 0 0 0 0 0 0 0 0 1 2 1 0 1 2 2 4 6 5 4 5 7 6 5 6 9 13 15 15 15 15 15 14 10 6 4 2 1 1 2
0 0 0 0 0 0 0 0 0 0 0 0 0 0 1 1 1 2 3 4 6 7 5 4 6 8 8 9 11 13 15 16 16 15 16 16 15 13 10 7 4 2 1 1
0 0 0 0 0 0 0 0 0 0 0 0 0 1 1 1 2 2 3 4 6 8 6 5 7 7 8 11 14 15 15 14 14 15 16 18 17 16 14 10 5 2 1 0
0 0 0 0 0 0 0 0 0 0 0 0 0 1 2 2 4 3 3 4 7 9 7 6 6 7 8 11 13 14 13 13 13 14 17 19 19 17 14 11 7 3 1 1
0 0 0 0 0 0 0 0 0 0 0 0 0 1 1 3 4 4 4 6 8 9 7 5 4 5 7 10 12 13 13 13 13 15 17 19 18 15 12 10 7 5 3 2
0 0 0 0 0 0 0 0 0 0 0 0 0 1 2 3 4 4 5 8 9 9 7 5 4 4 7 9 11 12 13 14 15 17 18 16 15 14 13 11 10 9 6 4
0 0 0 0 0 0 0 0 0 0 0 0 0 2 4 5 4 4 7 11 12 10 8 8 7 7 8 9 11 11 13 13 14 16 17 15 14 15 14 13 13 11 8 6
0 0 0 0 0 0 0 0 0 0 0 0 0 1 4 6 5 5 9 13 14 12 10 10 13 13 12 12 12 12 12 12 13 15 15 15 15 15 14 13 13 12 11 9
0 0 0 0 0 0 0 0 0 0 0 0 0 1 3 5 5 6 9 11 12 11 10 11 15 17 16 16 15 14 13 14 14 13 13 14 14 13 12 12 13 13 12 12
0 0 0 0 0 0 0 1 1 1 1 1 1 2 3 4 5 6 8 9 9 9 10 12 14 16 17 16 17 16 14 14 14 12 12 14 14 12 11 13 15 15 15 15
0 0 0 0 0 0 0 1 2 1 1 2 3 4 4 5 6 8 9 9 10 10 11 13 13 14 15 16 16 15 15 16 16 14 14 15 15 14 14 16 18 18 18 17
0 0 0 0 0 0 0 2 3 3 2 3 4 5 6 6 8 11 12 13 14 14 13 12 13 14 16 17 16 15 16 17 17 17 17 17 17 17 17 17 18 19 19 18
0 0 0 0 0 0 2 3 4 4 4 4 3 4 6 7 8 11 13 14 14 15 14 13 14 15 17 18 17 16 16 17 18 19 19 19 18 17 17 17 17 17 18 18
0 0 0 0 0 1 4 5 6 6 6 5 4 5 6 8 8 9 11 12 12 13 16 17 16 15 16 16 17 17 17 18 21 22 22 20 17 16 17 16 15 15 16 17
0 0 0 0 0 2 5 6 6 6 6 6 6 6 7 7 7 8 10 11 11 13 17 19 18 16 16 15 16 18 20 21 22 23 24 22 18 17 17 16 14 14 14 15
0 0 0 0 0 2 5 4 4 6 7 6 6 7 8 8 9 10 12 13 13 14 17 18 17 18 17 16 17 20 23 22 20 21 22 21 18 17 16 16 15 14 14 15
0 0 0 0 1 4 5 4 5 7 9 7 6 7 9 12 15 16 17 17 16 16 16 17 18 20 19 17 17 21 22 21 19 18 18 18 17 15 14 14 15 15 15 16
1 1 2 1 3 4 5 6 8 10 10 9 9 10 12 16 20 21 20 19 19 19 17 16 18 20 19 18 17 18 19 18 17 15 14 14 13 12 11 12 13 14 14 14
2 4 4 4 3 5 6 8 10 10 11 12 13 12 14 17 20 21 20 18 19 18 17 16 17 18 18 17 15 15 15 14 14 14 14 13 10 8 7 9 11 12 12 11
4 4 5 4 4 5 6 7 8 9 11 12 13 12 14 16 17 17 16 16 17 16 16 16 17 18 18 16 15 13 12 12 11 12 13 11 8 6 5 7 9 11 11 11
6 5 4 4 4 5 5 5 6 8 10 12 12 12 13 13 14 13 11 13 15 15 15 16 18 19 17 16 15 13 12 11 9 9 10 9 7 6 6 7 8 10 10 10
7 6 5 5 5 5 4 4 6 8 10 12 13 13 12 12 12 10 8 10 13 15 15 16 17 18 17 16 15 14 13 11 9 8 9 8 7 6 6 7 7 7 7 6
Wind_Speed
6 8 6 4 4 4 4 5 3 1 1 2 2 2 3 5 5 5 5 5 5 5 5 6 6 5 5 5 5 4 3 4 3 2 1 2 1 1 2 2 3 3 3 3
8 9 5 3 4 5 6 5 2 1 1 2 2 2 3 4 5 4 4 5 5 6 6 6 6 6 5 5 5 5 4 4 3 2 2 1 1 1 2 2 3 3 3 3
10 3 2 6 7 7 6 4 3 2 3 5 4 4 5 5 5 5 5 5 5 6 7 7 7 7 6 5 5 4 4 4 3 3 3 3 2 1 2 2 2 3 3 3
8 6 6 8 7 8 5 3 4 4 6 3 4 3 4 5 6 6 6 6 5 6 7 7 8 7 7 6 6 5 5 5 4 4 3 3 2 1 2 1 2 2 3 3
7 6 7 7 5 6 3 1 4 6 6 5 5 5 3 5 4 5 5 5 5 6 6 7 7 7 7 7 6 6 6 5 5 4 4 3 2 2 2 2 3 2 3 2
7 5 6 5 3 4 4 5 5 7 7 6 2 5 1 3 1 2 3 4 4 5 6 6 7 7 7 7 7 7 7 5 5 4 4 3 3 2 2 2 2 1 1 2
10 9 7 6 6 7 9 8 5 6 5 2 2 4 1 3 0 1 2 3 4 5 6 6 7 8 7 7 7 7 7 6 6 5 4 4 3 3 2 1 2 0 1 1
10 10 9 8 8 7 9 9 7 5 4 1 4 3 3 3 2 2 2 3 3 5 5 6 7 7 8 8 7 7 7 6 6 5 4 4 3 2 2 1 0 0 1 2
7 6 6 5 5 7 7 9 8 8 7 6 3 2 4 4 4 3 3 4 4 4 5 5 6 7 7 7 7 7 7 6 6 5 5 4 3 1 1 1 1 0 1 0
6 5 6 6 6 5 7 6 7 8 6 6 5 4 2 5 4 4 4 4 4 5 5 5 6 6 6 7 7 7 7 6 6 6 4 4 3 3 2 1 1 1 1 1
9 8 7 8 9 8 7 8 7 7 7 7 5 1 3 3 3 4 4 4 5 5 5 6 6 6 6 6 7 7 7 6 6 5 4 4 3 3 3 2 1 0 0 0
8 8 7 7 4 4 8 8 9 8 7 8 7 1 5 3 3 3 4 5 5 5 5 5 6 6 6 5 5 6 6 6 6 5 5 4 4 3 2 2 1 1 0 0
6 8 8 9 10 8 8 8 9 10 8 8 8 2 6 4 3 4 4 5 6 5 5 5 5 5 5 5 5 5 5 5 5 5 5 4 4 3 2 2 1 1 1 0
7 10 11 10 5 7 8 9 9 11 8 8 7 3 4 4 4 4 5 5 5 6 5 5 5 5 5 5 5 5 4 4 5 5 5 4 3 2 2 2 2 1 1 1
7 10 10 9 6 7 8 8 10 11 10 9 6 4 2 2 3 3 4 5 5 5 5 5 4 4 5 5 5 5 4 4 4 4 4 4 3 2 2 2 2 1 1 1
6 7 8 10 9 8 9 9 10 10 9 9 7 5 1 3 3 3 3 5 5 5 5 5 4 4 5 5 5 5 5 4 4 4 4 4 3 3 2 2 2 1 1 0
6 7 9 10 9 10 12 9 9 9 8 8 8 4 4 5 5 4 3 3 3 4 4 4 4 4 4 5 5 5 5 5 4 4 4 4 3 2 2 2 2 1 1 1
6 7 7 8 8 13 4 2 5 7 6 7 5 3 4 4 4 4 2 3 3 3 3 4 4 4 4 5 5 4 5 5 4 4 3 3 3 2 2 2 1 1 1 1
7 7 7 8 11 10 5 3 5 7 6 5 5 4 4 5 6 5 3 3 3 3 3 3 4 5 5 5 5 5 5 5 4 3 3 3 2 2 2 2 1 1 0 0
7 7 9 9 12 10 3 2 2 6 7 3 4 5 6 7 6 4 5 4 4 4 4 4 5 5 5 5 5 5 4 4 3 3 3 2 2 2 2 1 1 1 1 0
8 8 11 11 11 6 1 1 5 8 1 1 3 4 5 5 1 5 6 5 5 5 5 5 5 5 4 4 4 4 4 3 3 3 3 2 2 2 2 2 1 1 0 1
7 7 8 9 11 6 2 3 4 2 3 1 1 2 3 4 5 6 7 6 6 6 6 6 6 5 5 4 4 4 3 3 3 3 3 2 1 1 2 2 1 1 0 1
5 4 3 3 1 3 1 1 2 2 1 0 1 2 4 5 6 6 6 6 6 6 6 5 6 6 5 5 4 4 3 3 2 2 2 2 2 1 1 1 1 1 1 1
3 1 3 3 2 1 0 1 1 2 1 0 2 3 4 5 6 6 6 6 6 6 6 6 6 6 5 4 4 3 3 3 2 2 2 2 2 2 1 0 0 0 1 1
2 3 4 4 2 1 1 1 1 1 1 2 3 3 4 5 6 6 6 6 6 6 6 6 5 5 5 5 4 3 3 3 3 2 2 2 2 2 1 1 1 0 1 2
4 4 5 3 1 2 0 1 1 2 2 3 4 4 4 5 6 6 5 6 6 6 6 5 5 5 5 4 4 3 3 3 2 2 2 2 2 2 2 2 2 2 2 2
Wind_Direction
198 228 232 242 261 292 295 292 300 12 101 226 224 220 182 172 186 187 179 171 178 179 168 164 161 156 153 153 150 150 149 145 158 155 152 131 104 82 83 84 64 45 31 36
209 229 243 254 250 248 259 270 262 155 151 246 246 240 189 184 197 202 195 189 189 184 171 167 169 164 160 156 155 154 157 151 162 137 131 114 88 77 69 57 64 42 37 28
232 245 222 232 229 237 246 265 278 268 200 207 238 210 180 179 190 194 204 199 194 190 181 174 172 170 168 164 164 156 153 151 153 148 150 135 141 146 104 81 72 46 41 41
237 240 237 237 234 245 244 252 253 237 238 224 252 265 158 175 184 190 199 202 199 190 185 180 174 172 171 168 161 159 156 153 153 160 150 144 125 93 71 62 66 60 56 50
214 215 232 238 244 250 268 238 239 244 254 256 235 269 144 176 196 191 198 201 198 190 182 181 177 170 169 164 159 155 152 149 150 151 149 165 145 123 104 91 85 58 67 55
240 219 243 250 230 219 189 201 209 227 242 246 242 267 185 147 202 191 186 191 191 181 177 178 171 166 167 163 160 156 152 149 152 156 151 153 135 122 106 99 96 101 88 68
220 217 211 222 214 197 219 234 230 223 226 234 143 254 53 77 127 213 189 172 174 169 170 171 168 167 169 167 164 159 153 154 155 153 151 147 148 156 155 165 116 36 57 69
216 208 197 209 231 230 225 249 262 276 275 218 184 251 88 97 123 147 156 139 152 159 163 168 164 166 167 165 165 162 156 155 156 156 152 147 165 185 148 132 50 92 6 36
228 211 177 205 227 251 230 240 269 274 271 269 210 177 156 149 148 147 146 140 143 147 153 159 157 161 162 163 163 164 158 157 159 157 155 150 161 156 112 135 206 100 11 337
240 231 198 187 204 223 265 262 245 253 263 263 226 213 172 164 168 161 157 146 136 144 145 142 144 149 156 159 156 160 158 159 162 163 167 148 156 157 157 161 89 14 347 351
239 232 201 196 215 214 203 222 242 257 266 272 266 168 90 154 166 167 157 145 138 145 143 137 139 143 145 149 153 157 159 161 163 159 151 143 150 154 160 156 160 148 344 343
226 241 228 212 197 253 238 233 232 244 249 258 273 107 93 112 146 152 143 134 133 137 131 130 134 141 145 147 148 152 159 160 157 152 151 149 146 154 164 155 164 158 165 231
209 238 228 210 194 197 223 230 240 254 254 252 260 158 122 132 133 133 139 138 137 139 136 131 134 138 143 145 145 142 151 152 150 148 151 145 151 153 160 160 163 162 172 252
239 240 245 247 236 201 211 218 232 245 247 250 257 241 157 151 148 140 141 146 148 148 146 140 139 139 138 140 139 139 145 146 143 148 149 146 147 150 163 162 161 165 186 225
234 239 241 253 257 244 231 229 227 240 260 268 265 252 212 155 147 149 145 151 159 157 157 149 140 132 141 141 143 144 145 141 140 151 155 151 153 161 174 171 167 172 206 224
239 242 235 239 234 234 237 233 233 238 246 251 253 249 167 144 150 151 161 170 174 168 168 158 148 145 153 149 152 150 147 142 149 158 153 147 154 163 176 184 180 175 174 253
223 229 233 231 220 228 230 234 236 235 241 245 251 238 169 175 174 177 178 174 170 167 167 162 162 160 155 153 155 154 147 146 153 158 152 147 155 161 175 177 164 168 184 198
231 236 240 238 220 238 240 220 240 240 243 251 250 209 188 176 155 160 171 169 157 151 156 157 157 148 146 145 144 146 146 150 152 149 148 148 162 171 176 174 164 178 228 244
228 229 244 241 236 235 205 207 230 235 236 243 238 197 176 153 158 149 146 150 147 143 148 150 146 139 135 139 142 145 150 149 148 143 144 148 160 158 159 160 153 167 230 281
202 223 241 240 247 246 222 161 237 242 226 211 225 204 189 191 216 159 145 137 123 119 122 131 131 129 130 135 136 142 144 145 147 145 146 149 149 143 129 110 109 97 109 90
198 213 232 238 245 249 33 186 203 230 247 103 214 209 204 210 340 103 127 124 114 117 120 123 122 116 118 129 137 140 132 140 141 135 137 135 131 136 118 106 106 103 79 72
228 220 223 236 242 238 85 190 226 356 26 23 189 189 174 126 116 124 130 133 129 125 125 126 121 113 112 120 130 129 126 114 120 131 134 132 133 126 112 114 115 99 106 164
246 276 266 260 274 63 83 39 32 348 319 235 175 153 148 146 142 138 139 141 138 134 133 132 126 121 114 115 121 120 108 106 115 118 114 112 116 112 118 145 146 171 197 280
193 251 248 231 194 154 123 8 348 329 332 35 141 144 154 149 147 145 144 145 143 142 142 139 136 130 121 115 115 112 109 115 127 126 127 137 148 145 124 82 63 9 355 335
259 215 223 225 219 215 167 36 18 72 97 118 130 138 145 143 148 148 147 147 145 143 143 140 138 135 133 129 125 122 114 121 130 133 145 166 169 151 153 160 20 336 21 4
221 230 243 244 196 246 175 69 82 103 119 126 134 137 138 141 142 148 145 144 145 144 141 140 142 142 139 137 131 128 134 141 155 169 178 185 182 175 196 186 169 136 176 134